Weather History for Hoonah, AK

Change the Weather History Date:

Wednesday, December 5, 2012

  Actual Average Record
Temperature  
Mean Temperature 26 °F -  
Max Temperature 28 °F 34 °F 46 °F (2011)
Min Temperature 23 °F 29 °F 9 °F (2007)
Degree Days  
Heating Degree Days 40    
Moisture  
Dew Point 23 °F    
Average Humidity 89    
Maximum Humidity 100    
Minimum Humidity 74    
Precipitation  
Precipitation 0.00 in - - ()
Sea Level Pressure  
Sea Level Pressure 29.64 in    
Wind  
Wind Speed 13 mph (East)    
Max Wind Speed 17 mph    
Max Gust Speed 25 mph    
Visibility 4 miles    
Events Snow    
Averages and records for this station are not official NWS values.
T = Trace of Precipitation, MM = Missing Value Source: NWS Daily Summary

Daily Weather History Graph

Daily Weather History Graph

Search for Another Location

Airport:

Trip Planner

Search our weather history database for the weather conditions in past years. The results will help you decide how hot, cold, wet, or windy it might be!

Date:

Astronomy

Dec. 05, 2012 Rise Set
Actual Time 8:30 AM AKST 3:14 PM AKST
Civil Twilight 7:39 AM AKST 4:05 PM AKST
Nautical Twilight 6:47 AM AKST 4:57 PM AKST
Astronomical Twilight 5:59 AM AKST 5:45 PM AKST
Moon 11:25 PM AKST (12/5) 11:51 AM AKST (12/5)
Length of Visible Light 8h 25m
Length of Day
6h 44m
Waning Gibbous, 58% of the Moon is Illuminated
Dec 5
Waning Gibbous
Dec 6
Last Quarter
Dec 12
New
Dec 19
First Quarter
Dec 28
Full

Hourly Weather History & Observations

Time (AKST) Temp. Windchill Dew Point Humidity Pressure Visibility Wind Dir Wind Speed Gust Speed Precip Events Conditions
12:00 AM 24.8 °F 11.9 °F 17.6 °F 74% 29.51 in 2.5 mi East 16.1 mph - 0.00 in Snow Light Snow
12:30 AM 23.0 °F 10.6 °F 19.4 °F 86% 29.51 in 2.5 mi ESE 13.8 mph - 0.00 in Snow Light Snow
12:56 AM 23.0 °F 13.1 °F 20.1 °F 89% 29.53 in 1.5 mi East 9.2 mph - 0.00 in Snow Light Snow
1:13 AM 23.0 °F 10.6 °F 19.4 °F 86% 29.53 in 2.0 mi East 13.8 mph - 0.00 in Snow Light Snow
1:33 AM 23.0 °F 11.1 °F 19.4 °F 86% 29.54 in 3.0 mi ESE 12.7 mph - 0.00 in Snow Light Snow
1:56 AM 23.0 °F 11.1 °F 20.1 °F 89% 29.55 in 7.0 mi East 12.7 mph - 0.00 in Snow Light Snow
2:56 AM 24.1 °F 10.6 °F 19.0 °F 81% 29.56 in 10.0 mi East 17.3 mph - 0.00 in   Overcast
3:56 AM 24.1 °F 13.7 °F 19.0 °F 81% 29.57 in 10.0 mi ESE 10.4 mph - 0.00 in Snow Light Snow
5:56 AM 24.8 °F 13.4 °F 19.4 °F 80% 29.60 in 7.0 mi East 12.7 mph - N/A Snow Light Snow
6:56 AM 25.2 °F 13.9 °F 20.1 °F 81% 29.61 in 9.0 mi East 12.7 mph - 0.00 in Snow Light Snow
7:56 AM 25.2 °F 12.4 °F 20.1 °F 81% 29.62 in 10.0 mi East 16.1 mph - 0.00 in   Overcast
8:56 AM 25.2 °F 13.3 °F 20.1 °F 81% 29.64 in 10.0 mi ESE 13.8 mph - 0.00 in   Overcast
9:56 AM 25.2 °F 14.4 °F 20.1 °F 81% 29.65 in 10.0 mi ESE 11.5 mph - N/A   Overcast
10:18 AM 24.8 °F 13.4 °F 21.2 °F 86% 29.65 in 2.0 mi ESE 12.7 mph - 0.00 in Snow Light Snow
10:31 AM 24.8 °F 16.1 °F 21.2 °F 86% 29.65 in 1.8 mi ESE 8.1 mph - 0.00 in Snow Light Snow
10:44 AM 24.8 °F 14.0 °F 21.2 °F 86% 29.65 in 1.0 mi ESE 11.5 mph - 0.00 in Snow Light Snow
10:56 AM 24.1 °F 15.2 °F 23.0 °F 96% 29.66 in 0.8 mi ESE 8.1 mph - 0.00 in Snow Light Snow
11:03 AM 24.8 °F 14.6 °F 23.0 °F 93% 29.66 in 1.2 mi East 10.4 mph - 0.00 in Snow Light Snow
11:14 AM 24.8 °F 14.6 °F 23.0 °F 93% 29.66 in 2.0 mi East 10.4 mph - 0.00 in Snow Light Snow
11:35 AM 24.8 °F 12.9 °F 23.0 °F 93% 29.66 in 3.0 mi East 13.8 mph - 0.00 in Snow Light Snow
11:56 AM 24.8 °F 15.3 °F 21.2 °F 86% 29.66 in 10.0 mi East 9.2 mph - N/A   Overcast
12:56 PM 26.1 °F 15.6 °F 22.1 °F 85% 29.66 in 10.0 mi East 11.5 mph - 0.00 in   Overcast
1:56 PM 26.1 °F 15.0 °F 23.0 °F 88% 29.66 in 9.0 mi East 12.7 mph - 0.00 in Snow Light Snow
2:21 PM 26.6 °F 15.7 °F 23.0 °F 86% 29.65 in 2.5 mi East 12.7 mph - 0.00 in Snow Light Snow
2:26 PM 26.6 °F 16.8 °F 23.0 °F 86% 29.66 in 1.2 mi East 10.4 mph - 0.00 in Snow Light Snow
2:31 PM 26.6 °F 15.2 °F 24.8 °F 93% 29.66 in 1.0 mi East 13.8 mph - 0.00 in Snow Light Snow
2:40 PM 26.6 °F 18.2 °F 24.8 °F 93% 29.66 in 1.5 mi ESE 8.1 mph - 0.00 in Snow Light Snow
2:56 PM 26.6 °F 17.5 °F 24.8 °F 93% 29.66 in 0.8 mi East 9.2 mph - N/A Snow Light Snow
3:02 PM 26.6 °F 16.8 °F 24.8 °F 93% 29.66 in 1.2 mi East 10.4 mph - 0.00 in Snow Light Snow
3:06 PM 26.6 °F 18.2 °F 24.8 °F 93% 29.66 in 2.0 mi ESE 8.1 mph - 0.00 in Snow Light Snow
3:16 PM 26.6 °F 16.2 °F 24.8 °F 93% 29.65 in 5.0 mi East 11.5 mph - 0.00 in Snow Light Snow
3:56 PM 27.1 °F 16.9 °F 24.1 °F 88% 29.65 in 10.0 mi East 11.5 mph - 0.00 in   Overcast
4:56 PM 27.1 °F 16.9 °F 24.1 °F 88% 29.65 in 10.0 mi East 11.5 mph - 0.00 in   Overcast
5:41 PM 26.6 °F 16.2 °F 24.8 °F 93% 29.66 in 5.0 mi ESE 11.5 mph - 0.00 in Snow Light Snow
5:56 PM 26.6 °F 14.7 °F 24.8 °F 93% 29.65 in 5.0 mi East 15.0 mph - N/A   Overcast
6:56 PM 27.1 °F 16.4 °F 25.2 °F 92% 29.66 in 3.0 mi East 12.7 mph - 0.00 in Snow Light Snow
7:19 PM 26.6 °F 15.7 °F 26.6 °F 100% 29.66 in 1.8 mi East 12.7 mph - 0.00 in Snow Light Snow
7:38 PM 26.6 °F 14.3 °F 26.6 °F 100% 29.66 in 3.0 mi East 16.1 mph - 0.00 in Snow Light Snow
7:56 PM 28.0 °F 16.1 °F 26.1 °F 92% 29.67 in 2.5 mi East 16.1 mph - 0.00 in Snow Light Snow
8:08 PM 28.4 °F 16.6 °F 26.6 °F 93% 29.67 in 5.0 mi East 16.1 mph 25.3 mph 0.00 in   Overcast
8:56 PM 28.4 °F 16.6 °F 26.6 °F 93% 29.67 in 2.5 mi East 16.1 mph - N/A Snow Light Snow
9:08 PM 28.4 °F 18.0 °F 26.6 °F 93% 29.68 in 1.8 mi East 12.7 mph - 0.00 in Snow Light Snow
9:13 PM 28.4 °F 17.5 °F 26.6 °F 93% 29.68 in 1.2 mi East 13.8 mph - 0.00 in Snow Light Snow
9:26 PM 28.4 °F 18.0 °F 26.6 °F 93% 29.69 in 1.2 mi East 12.7 mph - 0.00 in Snow Light Snow
9:56 PM 28.0 °F 16.5 °F 27.1 °F 96% 29.69 in 1.5 mi East 15.0 mph - 0.00 in Snow Light Snow
10:03 PM 28.4 °F 17.0 °F 26.6 °F 93% 29.69 in 3.0 mi East 15.0 mph - 0.00 in Snow Light Snow
10:44 PM 28.4 °F 17.5 °F 26.6 °F 93% 29.70 in 4.0 mi East 13.8 mph - 0.00 in   Overcast
10:56 PM 28.0 °F 17.0 °F 27.1 °F 96% 29.72 in 2.5 mi East 13.8 mph - 0.00 in   Overcast
11:56 PM 28.4 °F 18.5 °F 26.6 °F 93% 29.72 in 7.0 mi East 11.5 mph - N/A   Overcast